EW9778 Weather Reports


time (UTC)temp
C
wind
direction
speed
KPH
gust
KPH
rain 1hr
cm
rain 24hr
cm
rain mn
cm
humidity
%
barometer
mb
20260504223008 25 187 8.0 20.9 0.00 0.00 0.00 67 1009.7
20260504221507 26 214 11.3 19.3 0.00 0.00 0.00 66 1010.0
20260504220002 26 205 6.4 16.1 0.00 0.00 0.00 65 1010.1
20260504214615 26 198 8.0 24.1 0.00 0.00 0.00 65 1010.1
20260504213121 26 232 4.8 14.5 0.00 0.00 0.00 63 1010.4
20260504211557 26 215 4.8 14.5 0.00 0.00 0.00 63 1010.4
20260504210059 27 208 8.0 16.1 0.00 0.00 0.00 62 1010.5
20260504204526 26 178 0.0 11.3 0.00 0.00 0.00 62 1010.8
20260504203027 26 198 6.4 17.7 0.00 0.00 0.00 62 1011.0
20260504201517 26 229 4.8 16.1 0.00 0.00 0.00 63 1011.3
20260504200015 27 202 3.2 12.9 0.00 0.00 0.00 62 1011.5
20260504194513 27 182 6.4 14.5 0.00 0.00 0.00 60 1011.7
20260504193019 26 198 3.2 12.9 0.00 0.00 0.00 62 1011.8
20260504191506 26 193 1.6 17.7 0.00 0.00 0.00 63 1012.0
20260504190004 26 211 3.2 19.3 0.00 0.00 0.00 62 1012.4
20260504184503 26 215 4.8 17.7 0.00 0.00 0.00 62 1012.5
20260504183002 26 214 4.8 16.1 0.00 0.00 0.00 61 1012.4
20260504181535 26 248 6.4 14.5 0.00 0.00 0.00 62 1012.6
20260504180025 25 186 6.4 14.5 0.00 0.00 0.00 62 1012.9
20260504174522 25 205 6.4 17.7 0.00 0.00 0.00 63 1013.1
20260504173019 25 252 4.8 16.1 0.00 0.00 0.00 62 1013.2
20260504171515 25 191 4.8 14.5 0.00 0.00 0.00 64 1013.7
20260504081507 16 205 0.0 3.2 0.00 0.00 0.00 72 1015.1
20260504044544 18 200 1.6 4.8 0.00 0.00 0.00 66 1017.1
20260504043036 18 200 0.0 4.8 0.00 0.00 0.00 65 1017.1
20260504041533 18 200 1.6 6.4 0.00 0.00 0.00 64 1017.2
20260504040033 19 190 3.2 8.0 0.00 0.00 0.00 63 1017.1
20260504034534 19 193 3.2 9.7 0.00 0.00 0.00 63 1017.1
20260504033039 20 209 1.6 8.0 0.00 0.00 0.00 62 1017.3
20260504031530 20 211 1.6 8.0 0.00 0.00 0.00 61 1017.2
20260504030022 20 209 0.0 4.8 0.00 0.00 0.00 60 1016.9
20260504024539 20 196 3.2 9.7 0.00 0.00 0.00 59 1016.9
20260504023050 21 204 1.6 12.9 0.00 0.00 0.00 58 1016.9
20260504021553 21 196 4.8 12.9 0.00 0.00 0.00 57 1016.9
20260504020016 21 178 4.8 16.1 0.00 0.00 0.00 56 1016.7
20260504014514 21 212 4.8 16.1 0.00 0.00 0.00 54 1016.7
20260504013048 22 231 6.4 16.1 0.00 0.00 0.00 53 1016.6
20260504011543 22 181 6.4 12.9 0.00 0.00 0.00 53 1016.4
20260504010036 22 200 4.8 16.1 0.00 0.00 0.00 52 1016.4
20260504004543 23 208 3.2 12.9 0.00 0.00 0.00 50 1016.4
20260504003034 23 196 3.2 12.9 0.00 0.00 0.00 50 1016.4
20260504001534 23 204 6.4 12.9 0.00 0.00 0.00 48 1016.4
20260504000032 24 201 4.8 12.9 0.00 0.00 0.00 49 1016.5
20260503234531 25 202 1.6 14.5 0.00 0.00 0.00 46 1016.4
20260503233031 25 194 6.4 19.3 0.00 0.00 0.00 45 1016.5
20260503231528 25 195 6.4 22.5 0.00 0.00 0.00 43 1016.5
20260503230028 25 161 3.2 11.3 0.00 0.00 0.00 40 1016.5
20260503224524 25 199 4.8 12.9 0.00 0.00 0.00 41 1016.8